Location: Newark
(40.0251°N, 85.2247°W)
Time: 22:14:35
(UTC+00:00)

Hubble Space Telescope - Pass Details

Date: 17 December 2019
Orbit: 536 x 540 km, 28.5° (Epoch: 28 January)

Event Time Altitude Azimuth Distance (km) Brightness Sun altitude
Exits shadow 11:06:12 11° 206° (SSW) 1,706 3.2 -20.4°
Maximum altitude 11:08:18 15° 174° (S) 1,475 3.2 -20.0°
Drops below altitude 10° 11:10:45 10° 137° (SE) 1,785 4.2 -19.6°
Sets 11:13:45 0° 114° (ESE) 2,677 5.9 -19.0°
